Simultaneous Nadir Overpasses (SNOs) Predictions

Prediction of SNOs between GOES-17 and TERRA Satellite Orbit:

Table of predicted SNOs for the next 14.0 days since TLE Epoch: 4/1/2023
Index Date Time (GOES-17) GOES-17 Lat,Lon TERRA Lat,Lon Distance(km) Time Diff (sec)
1 04/02/2023 04:55:00 0.00,-104.74 0.55,-102.00 311.14 80
2 04/02/2023 17:15:16 -0.00,-104.77 0.43,-106.93 244.64 80
3 04/04/2023 17:01:48 -0.00,-104.78 -0.36,-103.03 198.89 80
4 04/05/2023 05:22:10 0.00,-104.75 -0.67,-107.98 366.89 80
5 04/07/2023 05:03:22 0.00,-104.76 0.16,-104.09 76.83 80
6 04/07/2023 17:23:37 -0.00,-104.79 0.87,-109.01 479.16 80
7 04/09/2023 17:07:28 -0.00,-104.79 0.05,-105.11 35.59 80
8 04/11/2023 16:53:58 -0.00,-104.79 -0.74,-101.20 407.75 80
9 04/12/2023 05:14:20 0.00,-104.76 -0.31,-106.14 157.87 80
10 04/14/2023 04:55:30 -0.00,-104.75 0.52,-102.24 285.54 80
11 04/14/2023 17:15:45 0.00,-104.78 0.49,-107.16 270.69 80
